San Diego, CA

7:30 AM PST on February 08, 2016 (GMT -0800)
Miramar Marine Corps Air Station-Mitscher

Weather History for KNKX - January, 2013

Change the Weather History Date:

Thursday, January 17, 2013

  Actual Average Record
Temperature  
Mean Temperature 58 °F -  
Max Temperature 75 °F 64 °F 84 °F (2011)
Min Temperature 41 °F 44 °F 35 °F (2007)
Degree Days  
Heating Degree Days 7    
Growing Degree Days 8 (Base 50)    
Moisture  
Dew Point 27 °F    
Average Humidity 36    
Maximum Humidity 65    
Minimum Humidity 13    
Precipitation  
Precipitation 0.00 in - - ()
Sea Level Pressure  
Sea Level Pressure 30.10 in    
Wind  
Wind Speed 7 mph (NE)    
Max Wind Speed 9 mph    
Max Gust Speed -    
Visibility 10 miles    
Events      
Averages and records for this station are not official NWS values.
T = Trace of Precipitation, MM = Missing Value Source: NWS Daily Summary

Daily Weather History Graph

Daily Weather History Graph

Search for Another Location

Airport or City:

Trip Planner

Search our weather history database for the weather conditions in past years. The results will help you decide how hot, cold, wet, or windy it might be!

Date:

Astronomy

Jan. 17, 2013 Rise Set
Actual Time 6:50 AM PST 5:07 PM PST
Civil Twilight 6:24 AM PST 5:33 PM PST
Nautical Twilight 5:53 AM PST 6:04 PM PST
Astronomical Twilight 5:24 AM PST 6:33 PM PST
Moon 10:23 AM PST (1/17) 11:37 PM PST (1/17)
Length of Visible Light 11h 09m
Length of Day
10h 16m
Waxing Crescent, 39% of the Moon is Illuminated
Jan 17
Waxing Crescent
Jan 18
First Quarter
Jan 26
Full
Feb 3
Last Quarter
Feb 9
New

Hourly Weather History & Observations

Time (PST) Temp. Windchill Dew Point Humidity Pressure Visibility Wind Dir Wind Speed Gust Speed Precip Events Conditions
12:55 AM 43.0 °F 38.2 °F 32.0 °F 65% 30.11 in 10.0 mi ENE 8.1 mph - N/A   Clear
1:55 AM 45.0 °F 40.1 °F 30.0 °F 56% 30.12 in 10.0 mi East 9.2 mph - N/A   Clear
2:55 AM 46.9 °F - 30.0 °F 52% 30.10 in 10.0 mi East 9.2 mph - N/A   Clear
3:55 AM 43.0 °F 38.8 °F 30.0 °F 60% 30.10 in 10.0 mi ENE 6.9 mph - N/A   Clear
4:55 AM 41.0 °F 37.1 °F 28.9 °F 62% 30.10 in 10.0 mi ENE 5.8 mph - N/A   Clear
5:55 AM 45.0 °F 40.6 °F 28.9 °F 53% 30.11 in 10.0 mi East 8.1 mph - N/A   Clear
6:55 AM 45.0 °F 40.6 °F 28.0 °F 52% 30.12 in 10.0 mi East 8.1 mph - N/A   Partly Cloudy
7:55 AM 54.0 °F - 28.9 °F 38% 30.13 in 10.0 mi East 4.6 mph - N/A   Partly Cloudy
8:55 AM 64.0 °F - 27.0 °F 25% 30.14 in 10.0 mi East 6.9 mph - N/A   Partly Cloudy
9:55 AM 70.0 °F - 25.0 °F 18% 30.14 in 10.0 mi North 3.5 mph - N/A   Partly Cloudy
10:55 AM 72.0 °F - 21.0 °F 15% 30.11 in 10.0 mi Calm Calm - N/A   Partly Cloudy
11:55 AM 75.9 °F - 21.9 °F 13% 30.07 in 10.0 mi North 3.5 mph - N/A   Partly Cloudy
12:55 PM 75.9 °F - 21.9 °F 13% 30.04 in 10.0 mi WNW 8.1 mph - N/A   Partly Cloudy
1:55 PM 75.9 °F - 21.0 °F 13% 30.04 in 10.0 mi West 6.9 mph - N/A   Partly Cloudy
2:55 PM 73.0 °F - 23.0 °F 15% 30.04 in 10.0 mi NW 6.9 mph - N/A   Partly Cloudy
3:55 PM 70.0 °F - 32.0 °F 25% 30.05 in 10.0 mi NNW 4.6 mph - N/A   Partly Cloudy
4:55 PM 66.0 °F - 27.0 °F 23% 30.07 in 10.0 mi NNW 4.6 mph - N/A   Partly Cloudy
5:55 PM 63.0 °F - 25.0 °F 24% 30.09 in 10.0 mi North 3.5 mph - N/A   Partly Cloudy
6:55 PM 55.0 °F - 30.0 °F 38% 30.11 in 10.0 mi East 6.9 mph - N/A   Partly Cloudy
7:55 PM 55.9 °F - 28.9 °F 36% 30.11 in 10.0 mi SE 5.8 mph - N/A   Partly Cloudy
8:55 PM 48.0 °F - 28.0 °F 46% 30.11 in 10.0 mi East 3.5 mph - N/A   Partly Cloudy
9:55 PM 48.0 °F - 27.0 °F 44% 30.10 in 10.0 mi ENE 4.6 mph - N/A   Partly Cloudy
10:55 PM 46.0 °F 43.1 °F 27.0 °F 47% 30.10 in 10.0 mi NE 5.8 mph - N/A   Partly Cloudy
11:55 PM 48.0 °F - 26.1 °F 42% 30.10 in 10.0 mi ENE 6.9 mph - N/A   Partly Cloudy